Back to catalog

STARLINK-35082

AliveCommunicationsSSO
NORAD 65392·PAYLOAD·🇺🇸 United States

Launched Aug 30, 2025 from Vandenberg Space Force Base

Loading…

Next Passes (next 24 hours)

TLE

FreshSource: CelesTrak SupGP

Epoch: Sep 14, 2026, 15:12 UTC

1 65392C 25191P   26257.63381944  .00010352  00000+0  32138-3 0  2570
2 65392  97.2844 123.6966 0001840  85.1340   7.0529 15.33428642    10

Track STARLINK-35082 in real time with AllMySat

Download on the App Store